Theta_e
342 349 354 353 352 352 351 351 350 350 350 349 349 348 348 348 347 347 347 347 347 347 347 348 347 348 348 347 348 350 349 347 352 352 346 351 352 350 352 353 355 352 356
344 347 354 353 352 352 351 351 350 350 350 350 350 351 352 351 351 350 350 350 349 348 347 347 347 348 349 348 349 351 349 347 347 351 350 346 352 353 355 352 350 352 354
345 349 349 354 353 352 351 350 349 349 350 351 351 352 352 351 350 349 348 348 348 349 349 349 348 348 348 349 349 350 350 350 349 347 348 343 336 354 356 353 351 352 352
346 350 348 354 353 352 352 350 349 350 350 351 351 351 351 351 349 348 348 349 348 349 349 348 349 349 349 349 349 350 350 349 349 348 339 338 338 356 357 354 351 350 350
346 336 348 354 353 352 352 352 351 351 351 351 351 352 351 350 349 349 348 349 349 349 348 348 348 348 349 349 351 352 351 350 349 346 335 331 344 355 355 352 351 350 348
349 352 353 356 356 354 353 353 353 351 352 349 350 350 350 350 348 348 348 347 346 346 347 348 347 346 347 347 347 350 351 351 349 339 334 335 346 355 352 354 350 352 349
346 351 351 355 356 356 353 352 351 350 349 350 349 348 347 347 346 344 344 341 341 342 342 345 345 345 346 346 347 347 347 347 342 337 334 334 347 352 352 353 350 350 349
341 345 351 355 356 356 355 353 352 351 350 347 346 345 344 342 340 338 337 334 334 335 336 338 339 341 342 343 345 346 347 346 342 336 334 332 350 353 351 350 350 350 350
332 331 333 352 355 355 353 351 350 347 344 343 341 342 343 339 337 333 332 331 330 331 332 333 335 337 338 338 341 345 347 347 341 339 338 335 350 350 349 351 351 351 351
327 326 327 330 336 348 346 349 347 345 343 339 338 343 343 343 343 338 337 331 329 330 331 332 334 336 339 342 343 345 346 346 340 338 337 337 350 347 347 347 348 349 350
324 326 330 329 333 335 342 346 346 345 346 342 338 340 335 327 328 328 329 325 328 330 332 336 338 340 341 342 344 344 346 339 334 338 339 342 340 341 344 346 347 349 348
323 325 330 334 335 334 331 340 339 334 336 335 331 332 327 331 329 330 333 330 338 331 339 339 340 339 332 326 327 343 341 336 329 336 337 340 339 337 337 339 343 346 346
322 326 329 334 336 335 333 334 333 333 334 334 333 333 331 331 330 328 328 328 330 332 327 329 328 326 325 325 325 326 326 326 332 334 336 340 340 341 341 340 339 343 345
322 324 327 331 334 336 335 333 332 332 332 331 332 331 330 329 328 329 328 328 327 325 328 327 325 327 327 327 325 324 322 323 324 328 334 339 338 339 341 342 340 340 343
322 323 324 330 335 336 335 333 335 334 330 334 330 331 332 329 328 327 329 326 326 326 326 326 326 326 326 325 325 324 323 323 325 326 328 336 336 336 338 339 341 339 339
328 325 325 327 333 332 335 338 335 333 333 332 331 330 332 329 329 325 328 327 325 326 326 325 324 326 326 326 326 327 326 326 325 326 325 327 337 334 333 335 338 340 337
329 330 328 331 331 334 334 332 333 330 329 331 332 330 329 330 328 327 328 326 325 326 325 322 322 323 323 324 325 322 324 325 325 326 327 328 330 334 330 332 334 332 332
329 331 331 326 330 333 333 336 333 332 333 333 332 329 328 327 329 326 326 326 325 327 323 320 320 320 320 322 321 321 321 325 324 325 327 328 330 330 329 326 326 327 328
331 331 330 330 328 331 335 334 335 335 334 334 329 327 329 326 325 326 325 326 325 324 322 319 319 319 318 319 317 318 322 324 324 323 324 327 329 330 328 326 323 323 325
332 332 331 329 332 335 334 338 335 334 333 334 328 329 329 326 325 326 324 326 323 322 321 320 318 319 318 319 316 317 323 321 324 323 323 324 325 327 327 326 323 322 323
334 333 331 330 334 333 328 326 328 326 332 332 330 330 329 327 325 327 323 323 322 322 320 319 317 315 316 317 314 314 317 321 321 322 323 323 323 324 325 326 325 325 323
334 333 331 330 332 331 333 335 333 332 333 332 332 331 330 328 327 324 326 322 323 320 318 318 316 314 313 315 312 310 309 316 314 321 321 321 322 324 323 325 324 323 324
334 333 331 331 331 332 334 334 332 336 335 329 328 326 330 328 326 327 326 325 323 320 316 317 315 314 310 312 314 312 306 304 309 317 319 319 320 320 322 323 323 322 323
334 332 331 331 331 330 333 335 333 328 325 330 328 330 331 328 327 325 325 324 324 322 319 317 317 316 314 310 311 314 317 314 309 306 315 317 319 319 319 320 320 322 322
333 330 330 332 332 331 332 334 328 327 326 328 327 330 332 331 326 323 325 325 323 320 320 319 319 316 317 313 310 311 312 314 314 309 305 309 315 319 319 320 319 319 321
331 329 329 330 331 332 331 332 333 331 329 326 328 325 324 326 326 325 324 325 324 323 321 320 320 319 318 317 316 314 311 310 310 310 308 309 309 314 318 319 318 318 319
Wind_Speed
14 11 10 9 7 6 6 6 6 7 7 8 8 8 7 7 8 8 8 8 8 9 9 9 9 9 9 10 10 9 9 9 11 11 9 9 6 4 2 3 6 6 5
15 11 9 8 6 5 5 5 5 5 5 6 7 8 9 9 9 9 9 8 8 8 8 8 9 8 9 9 10 9 11 11 10 10 10 11 11 9 7 4 4 6 5
15 14 10 7 5 4 3 2 2 3 5 5 6 7 8 9 10 10 11 11 11 10 10 9 9 9 9 9 9 10 10 12 12 12 12 8 11 15 11 7 8 6 2
14 14 8 8 6 4 3 1 2 3 4 5 6 7 8 8 8 9 10 12 13 13 13 12 12 11 10 10 9 9 10 12 14 16 9 11 13 16 12 8 6 7 2
21 11 6 9 7 3 1 1 1 3 4 6 7 8 9 9 9 10 11 12 12 13 13 13 13 13 12 12 11 10 10 11 14 16 12 12 2 12 10 7 7 6 3
13 17 13 11 9 6 2 1 3 5 5 6 7 9 9 10 11 11 12 13 14 14 14 14 13 13 13 13 12 11 11 12 12 12 13 12 7 14 12 9 6 8 6
10 12 9 13 12 8 4 4 4 4 5 7 8 7 8 8 8 9 11 13 14 14 14 14 13 13 13 13 13 13 12 12 10 10 12 12 9 15 15 9 4 5 5
5 7 9 12 11 12 11 10 11 11 9 9 8 7 5 4 5 6 8 11 13 14 15 14 14 14 14 14 13 12 12 12 11 10 10 8 11 12 10 12 7 4 5
13 12 11 13 13 15 14 13 14 11 9 7 6 5 4 2 1 4 5 11 12 12 13 13 14 15 15 15 14 12 12 12 8 8 12 3 6 8 7 4 6 6 5
11 12 12 11 6 12 10 16 14 12 7 5 3 10 11 9 6 9 3 8 9 11 11 10 13 14 16 16 17 12 11 13 10 9 8 4 3 7 7 8 7 5 6
10 11 11 11 10 8 13 11 11 11 11 10 15 17 11 7 8 9 5 1 5 9 9 9 12 15 17 17 18 14 12 6 7 2 3 9 9 5 5 7 6 6 7
11 12 12 10 11 11 9 6 4 8 6 5 8 9 7 6 7 10 7 4 5 6 9 12 12 12 15 9 8 6 5 8 4 4 4 6 7 5 8 5 7 8 9
12 9 11 10 10 12 8 5 4 5 4 4 8 7 7 5 6 6 4 6 4 11 5 7 7 5 8 5 5 6 8 8 4 3 6 7 8 10 10 8 9 9 9
12 10 11 11 8 8 7 5 6 4 4 4 5 8 6 5 8 7 4 6 5 6 6 6 5 7 7 8 5 5 8 7 7 3 3 6 6 9 12 14 12 12 10
12 10 10 9 7 5 7 6 4 4 4 4 6 7 4 6 6 8 6 6 6 6 5 4 5 6 6 7 6 4 5 5 6 4 3 2 2 4 10 12 14 12 11
9 10 8 9 7 7 4 4 4 4 4 4 5 5 6 5 5 7 6 5 6 7 5 6 8 6 5 5 6 4 6 4 3 5 3 4 7 3 6 11 12 14 10
9 7 8 6 7 6 5 6 5 5 5 4 3 8 8 6 7 9 4 6 7 9 10 10 10 11 9 6 6 7 8 3 4 4 4 5 5 5 5 8 14 9 11
7 7 5 7 6 5 5 1 3 3 3 3 4 6 9 8 7 9 5 6 8 6 9 8 9 9 9 10 6 7 6 1 4 6 3 3 4 3 3 3 6 2 5
6 5 5 5 5 5 3 3 2 1 2 2 6 6 7 8 9 7 6 6 9 5 6 7 9 9 9 8 9 10 7 3 5 6 7 6 5 3 3 4 4 1 6
6 5 6 5 4 5 4 1 2 3 3 3 6 4 6 6 9 7 7 7 8 5 7 6 8 9 9 5 9 9 7 4 5 6 5 4 4 4 3 4 2 2 8
6 6 5 5 3 5 4 5 4 4 3 3 4 5 6 6 7 5 6 7 8 6 8 9 7 10 9 8 7 9 7 7 6 5 6 5 5 5 5 5 3 2 3
7 5 5 4 4 4 3 2 1 3 1 1 3 5 6 5 6 6 5 6 6 7 9 8 9 7 8 10 8 8 4 2 8 4 4 5 5 4 5 4 4 3 1
9 7 6 4 2 3 4 2 5 2 2 3 4 5 2 4 5 5 5 3 5 5 5 5 7 8 5 7 10 4 5 4 10 3 3 3 6 4 3 2 2 3 4
10 8 8 5 2 4 4 3 3 4 4 2 3 3 2 4 5 5 5 6 5 4 5 4 4 3 4 6 7 5 4 5 3 6 4 2 3 4 4 3 3 2 4
13 9 9 6 4 3 2 2 4 4 5 4 4 6 3 4 8 7 6 5 5 5 3 1 3 4 2 3 3 7 9 6 3 4 8 8 4 3 2 2 2 1 2
12 10 10 7 6 4 2 2 1 2 2 3 3 5 4 3 5 6 6 4 4 4 2 2 2 3 4 3 3 5 5 5 5 3 5 9 8 4 3 3 0 1 2
Wind_Direction
97 109 106 97 85 73 61 48 35 26 17 10 9 7 6 3 359 357 356 356 354 351 350 349 350 351 353 353 353 357 360 2 349 332 307 300 289 285 287 352 342 65 74
104 110 110 98 86 67 41 30 24 15 10 7 360 357 357 355 351 351 348 343 340 337 334 333 331 330 332 335 337 341 341 340 339 328 303 279 261 244 225 189 78 57 42
108 121 116 119 119 120 107 43 16 1 359 359 353 352 353 353 351 349 347 344 338 334 330 323 318 316 317 318 321 323 326 324 321 316 303 267 267 208 204 198 141 124 90
97 66 68 145 146 146 134 114 353 343 345 345 348 347 346 346 350 350 347 347 344 341 337 329 321 316 311 306 302 302 307 311 311 309 297 271 240 184 187 192 167 142 169
102 128 232 177 148 151 128 108 301 335 340 342 343 341 346 351 1 5 1 358 352 345 341 337 331 324 320 312 305 298 291 293 301 303 285 273 105 157 160 203 183 155 133
137 134 212 155 145 161 167 253 13 347 337 346 1 355 6 14 14 11 13 8 0 352 348 347 342 334 324 313 306 303 297 292 292 288 285 315 116 142 173 181 191 119 130
123 138 137 136 154 144 124 62 54 29 22 30 22 19 31 37 36 29 28 16 6 358 351 351 348 340 332 323 312 296 288 289 288 284 292 300 157 166 171 180 184 157 134
76 104 129 121 131 117 103 89 78 68 56 46 39 35 39 55 68 49 48 23 1 349 344 338 337 331 326 320 314 299 279 275 284 284 281 288 142 153 180 177 174 191 165
24 25 33 130 122 113 112 107 92 83 74 65 52 24 342 294 219 90 72 25 3 346 340 335 328 319 313 304 297 299 292 276 272 272 281 289 154 161 172 180 196 197 207
33 29 29 14 75 135 126 114 109 113 96 72 35 355 309 238 346 355 33 24 356 346 343 332 321 312 303 299 292 280 274 269 260 255 259 321 265 173 172 200 199 207 232
28 40 41 16 354 5 119 117 126 139 94 47 23 350 348 11 20 322 106 312 319 319 312 312 305 295 294 287 285 254 262 257 262 18 348 25 13 358 225 192 206 214 228
32 31 40 24 3 12 33 96 78 50 84 71 56 344 10 347 4 344 7 233 336 287 2 334 331 351 359 350 342 236 257 272 346 55 91 22 333 320 291 270 245 226 230
46 37 33 31 28 5 25 23 35 46 19 58 67 3 2 353 352 351 4 338 353 8 356 335 331 15 333 337 318 341 332 332 9 17 348 18 338 308 290 296 270 255 235
45 33 45 47 35 13 356 36 32 55 16 54 64 26 15 5 2 339 353 341 359 359 341 337 335 351 328 311 342 328 340 342 336 327 289 13 351 340 313 287 280 270 247
44 33 38 53 13 44 31 4 47 352 49 27 68 27 42 1 19 336 327 352 13 334 338 342 349 319 312 312 321 342 312 282 295 308 345 14 332 349 351 326 274 265 254
45 31 22 63 37 28 52 335 28 348 36 34 73 54 5 21 20 337 328 1 1 322 322 1 348 329 314 316 312 320 287 281 311 301 289 296 179 126 18 353 318 265 326
78 47 355 64 78 8 28 350 61 5 42 32 45 65 360 28 31 336 356 16 344 324 25 11 354 340 335 320 345 337 304 42 291 294 349 350 22 123 67 30 19 79 42
60 63 52 14 22 94 334 62 75 335 34 37 46 53 4 19 30 340 4 14 343 332 40 10 343 330 329 325 352 304 301 311 320 16 83 50 26 9 12 68 353 61 113
90 60 50 65 26 330 167 268 101 84 70 17 67 44 17 13 24 355 3 22 340 355 42 21 340 332 331 346 343 321 323 15 36 26 0 41 49 13 319 90 29 238 252
103 76 78 47 12 300 317 258 63 120 26 82 79 50 37 10 30 17 355 35 351 28 35 22 342 335 323 341 334 324 318 27 44 10 2 20 40 22 303 356 160 199 242
127 101 59 79 8 324 31 14 10 0 74 13 93 69 54 16 30 37 357 24 353 7 36 13 354 341 329 8 343 330 299 57 46 9 352 360 21 23 11 24 331 157 215
120 118 88 59 44 357 31 79 280 291 341 21 83 84 76 37 26 22 9 31 333 340 40 13 3 351 348 356 345 309 339 13 11 17 357 342 31 23 349 354 53 54 115
148 133 111 89 68 38 346 19 331 190 227 41 353 57 26 67 45 24 12 25 352 31 35 22 360 1 352 341 348 359 339 1 327 344 343 316 351 332 331 30 37 72 73
142 138 134 116 20 117 6 55 331 309 27 7 8 54 284 118 92 40 32 5 17 24 46 24 359 345 346 346 335 338 281 273 312 320 328 324 295 331 331 330 15 46 96
141 164 128 137 144 128 138 4 335 28 3 3 16 312 344 134 91 54 32 9 27 5 72 26 358 330 346 315 319 326 328 328 336 310 315 334 357 342 314 322 7 1 150
146 155 140 159 150 166 197 181 119 1 21 317 323 293 355 359 108 63 26 14 20 359 7 23 340 26 351 315 325 312 327 317 311 335 325 322 332 321 303 204 176 261 266